DELTA 1 DEB, 26838

Orbit data source: Space-Track

DELTA 1 DEB, 26838 is space debris in SSO originally from a launch on Thu, 12 Jun 1975 UTC launched from the Air Force Western Test Range (AFWTR). Debris objects in space refer to the collection of defunct objects orbiting the Earth. Examples of debris include non-operational satellites, rocket bodies, and fragments generated from explosions, collisions, or faulty payload assembly.

Loading next visibility...
Identifier
26838, 1975-052KS
Orbit
SSO
Country
Flag of USUS
Related business
Manufacturer
Unknown
Mission
Spacecraft
Bus & Motor
Unknown
Mass
Unknown
Launch date (UTC)
1975-06-12 (51 years ago)
Launch vehicle
Unknown
Launch site
Air Force Western Test Range (AFWTR)
Object type
Payload
Rocket body
Debris
Shape & HBR
Unknown shape, 0.1 m
Radar Cross Section
Medium (>0.1 m² and <1 m²)

Expand to show TLE details & history
Last TLE update: 3 days ago

TLE from 3 days ago
0 DELTA 1 DEB
1 26838U 75052KS  26170.28963937 -.00000221  00000-0 -54175-3 0  9991
2 26838  99.2570 290.9850 0310369  65.4083 325.8981 12.94686054512393
Epoch: 2026-06-19T06:57Z
TLE epoch observation values (Epoch: 2026-06-19T06:57:04.841Z)
Latitude
28.87605°
Longitude
-85.9362°
Altitude
1,091.891 km
Speed
7.401 km/s
True Right ascension
19h 03m 25s
True Declination
28° 44' 15"
Sunlit
Object was in full shadow at epoch
Visualization orbit readout
Latitude
Unknown
Longitude
Unknown
Altitude
Unknown
Speed
Unknown
Apparent Right ascension
Unknown
Apparent Declination
Unknown
Sunlit
N/A
Visualization observer readout
Local Sidereal Time
01:06:54
Azimuth
Unknown
Elevation
Unknown
Doppler factor
Unknown
Orbital elements
Apogee altitude
1,518.027 km
Perigee altitude
1,042.637 km
Semi-major axis
7,658.469 km
Eccentricity
0.03104
Inclination
99.257°
RAAN
290.985°
Arg. of periapsis
65.4083°
True anomaly
323.8384°
Mean anomaly
325.8981°
Eccentric anomaly
324.87494°
Mean motion
3.2384 °/min
Orbital period
111.17 mins
BSTAR
-0.00054175
Loading maneuver chart data...
Computing Atmospheric mass density...
Loading historical data...
Loading historical data...
Loading historical data...
Loading historical data...
Loading historical data...
Loading historical data...
Loading historical data...

Documentation

Showing up to 5 results
|